THOR ABLESTAR DEB, 252

Orbit data source: Space-Track

THOR ABLESTAR DEB, 252 is space debris in LEO originally from a launch on Thu, 29 Jun 1961 UTC launched from the Air Force Eastern Test Range (AFETR). Debris objects in space refer to the collection of defunct objects orbiting the Earth. Examples of debris include non-operational satellites, rocket bodies, and fragments generated from explosions, collisions, or faulty payload assembly.

Loading next visibility...
Identifier
252, 1961-015CD
Orbit
LEO
Country
Flag of USUS
Related business
Manufacturer
Unknown
Mission
Spacecraft
Bus & Motor
Unknown
Mass
Unknown
Launch date (UTC)
1961-06-29 (65 years ago)
Launch vehicle
Unknown
Launch site
Air Force Eastern Test Range (AFETR)
Object type
Payload
Rocket body
Debris
Shape & HBR
Unknown shape, 0.4 m
Radar Cross Section
Small (<0.1 m²)

Expand to show TLE details & history
Last TLE update: 7 hours ago

TLE from 7 hours ago
0 THOR ABLESTAR DEB
1 00252U 61015CD  26126.85823091  .00000202  00000-0  27004-3 0  9995
2 00252  67.0782 284.2788 0058521 235.8719 235.5353 13.77808510245632
Epoch: 2026-05-06T20:35Z
TLE epoch observation values (Epoch: 2026-05-06T20:35:51.150Z)
Latitude
59.50779°
Longitude
-114.99011°
Altitude
1,005.465 km
Speed
7.343 km/s
True Right ascension
03h 54m 44s
True Declination
59° 21' 44"
Sunlit
Object was in daylight at epoch
Visualization orbit readout
Latitude
Unknown
Longitude
Unknown
Altitude
Unknown
Speed
Unknown
Apparent Right ascension
Unknown
Apparent Declination
Unknown
Sunlit
N/A
Visualization observer readout
Local Sidereal Time
11:50:47
Azimuth
Unknown
Elevation
Unknown
Doppler factor
Unknown
Orbital elements
Apogee altitude
1,013.044 km
Perigee altitude
927.04 km
Semi-major axis
7,348.179 km
Eccentricity
0.00585
Inclination
67.0782°
RAAN
284.2788°
Arg. of periapsis
235.8719°
True anomaly
234.98469°
Mean anomaly
235.5353°
Eccentric anomaly
235.25977°
Mean motion
3.44567 °/min
Orbital period
104.48 mins
BSTAR
0.00027004
Loading maneuver chart data...
Computing Atmospheric mass density...

Documentation

Showing up to 5 results
|